STARLINK-3372, 51113

Orbit data source: Space-Track

STARLINK-3372, 51113 is a payload satellite owned by SpaceX/Seattle (US) in LEO that was launched on Wed, 19 Jan 2022 UTC via an FALCON 9 launch vehicle from the Air Force Eastern Test Range (AFETR). Payload-class satellites include a variety of spacecraft equipped with specific instruments for various scientific and technological missions. These include communications satellites like Starlink; space stations such as the ISS; scientific satellites like the Hubble; Earth observation satellites from companies like Planet Labs, Umbra, and HawkEye 360; GPS; miniature CubeSats for education and research; and military/defense satellites.

Loading next visibility...
Identifier
51113, 2022-005K
Orbit
LEO
Country
Flag of USUS
Related business
Manufacturer
SpaceX/Seattle
Mission
Operational Commercial Communications
Bus & Motor
STARLINK, Unknown motor
Mass
297 kg wet, ~275 kg dry
Launch date (UTC)
2022-01-19 (4 years ago)
Launch vehicle
FALCON 9
Launch site
Air Force Eastern Test Range (AFETR)
Object type
Payload
Rocket body
Debris
Shape & HBR
Box + 1 Pan, 10.1 m
Radar Cross Section
13.562 m², Large (>1 m²)

Expand to show TLE details & history
Last TLE update: 10 hours ago

TLE from 10 hours ago
0 STARLINK-3372
1 51113U 22005K   26094.25665522  .00010205  00000-0  65776-3 0  9996
2 51113  53.2151 174.3475 0001408  82.4514 277.6638 15.08874259232733
Epoch: 2026-04-04T06:09Z
TLE epoch observation values (Epoch: 2026-04-04T06:09:35.011Z)
Latitude
-0°
Longitude
-110.62742°
Altitude
540.406 km
Speed
7.593 km/s
True Right ascension
11h 37m 23s
True Declination
0° 00' 00"
Sunlit
Object was in full shadow at epoch
Visualization orbit readout
Latitude
Unknown
Longitude
Unknown
Altitude
Unknown
Speed
Unknown
Apparent Right ascension
Unknown
Apparent Declination
Unknown
Sunlit
N/A
Visualization observer readout
Local Sidereal Time
22:29:29
Azimuth
Unknown
Elevation
Unknown
Doppler factor
Unknown
Orbital elements
Apogee altitude
540.858 km
Perigee altitude
538.91 km
Semi-major axis
6,918.021 km
Eccentricity
0.00014
Inclination
53.2151°
RAAN
174.3475°
Arg. of periapsis
82.4514°
True anomaly
277.64781°
Mean anomaly
277.6638°
Eccentric anomaly
277.6558°
Mean motion
3.77199 °/min
Orbital period
95.44 mins
BSTAR
0.00065776
Loading maneuver chart data...
Computing Atmospheric mass density...
Loading historical data...
Loading historical data...
Loading historical data...
Loading historical data...
Loading historical data...
Loading historical data...
Loading historical data...

Documentation

Showing up to 5 results
|